Location: Dackenheim
(49.5215°N, 8.1854°E)
Time: 21:52:04
(UTC+00:00)

BlueWalker 3 - Pass Details

Date: 27 January 2026
Orbit: 450 x 461 km, 53.2° (Epoch: 11 February)

Event Time Altitude Azimuth Distance (km) Brightness Sun altitude
Rises 17:01:19 0° 243° (WSW) 2,452 7.7 -7.8°
Reaches altitude 10° 17:03:26 10° 243° (WSW) 1,581 6.1 -8.1°
Maximum altitude 17:06:59 85° 157° (SSE) 458 1.7 -8.7°
Enters shadow 17:10:09 13° 67° (ENE) 1,422 3.6 -9.1°
